Open Text EBITDA Margin 2010-2024 | OTEX

Current and historical EBITDA (Earnings Before Interest, Taxes, Depreciation and Amortization) margin for Open Text (OTEX) over the last 10 years. The current EBITDA margin for Open Text as of March 31, 2024 is .
Open Text EBITDA Margin Historical Data
Date TTM Revenue TTM EBITDA EBITDA Margin
2024-03-31 $5.90B $1.70B 28.86%
2023-12-31 $5.70B $1.55B 27.16%
2023-09-30 $5.06B $1.37B 27.13%
2023-06-30 $4.49B $1.19B 26.56%
2023-03-31 $3.90B $1.10B 28.13%
2022-12-31 $3.53B $1.09B 30.97%
2022-09-30 $3.51B $1.11B 31.63%
2022-06-30 $3.49B $1.15B 33.01%
2022-03-31 $3.49B $1.19B 34.12%
2021-12-31 $3.44B $1.21B 35.33%
2021-09-30 $3.42B $1.26B 36.84%
2021-06-30 $3.39B $1.27B 37.41%
2021-03-31 $3.32B $1.24B 37.32%
2020-12-31 $3.30B $1.20B 36.34%
2020-09-30 $3.22B $1.14B 35.27%
2020-06-30 $3.11B $1.06B 34.04%
2020-03-31 $3.03B $1.06B 35.07%
2019-12-31 $2.94B $1.07B 36.59%
2019-09-30 $2.90B $1.07B 36.82%
2019-06-30 $2.87B $1.04B 36.33%
2019-03-31 $2.88B $1.04B 36.00%
2018-12-31 $2.84B $1.00B 35.26%
2018-09-30 $2.84B $0.99B 34.99%
2018-06-30 $2.82B $0.97B 34.56%
2018-03-31 $2.73B $0.92B 33.58%
2017-12-31 $2.63B $0.86B 32.60%
2017-09-30 $2.44B $0.76B 31.05%
2017-06-30 $2.29B $0.71B 31.02%
2017-03-31 $2.11B $0.66B 31.25%
2016-12-31 $1.96B $0.65B 33.01%
2016-09-30 $1.88B $0.64B 33.74%
2016-06-30 $1.83B $0.63B 34.30%
2016-03-31 $1.82B $0.62B 33.83%
2015-12-31 $1.83B $0.59B 31.95%
2015-09-30 $1.83B $0.58B 31.73%
2015-06-30 $1.85B $0.60B 32.60%
2015-03-31 $1.86B $0.62B 33.32%
2014-12-31 $1.86B $0.62B 33.57%
2014-09-30 $1.76B $0.56B 32.14%
2014-06-30 $1.63B $0.50B 30.89%
2014-03-31 $1.48B $0.43B 29.36%
2013-12-31 $1.37B $0.40B 29.21%
2013-09-30 $1.36B $0.41B 29.98%
2013-06-30 $1.36B $0.40B 29.20%
2013-03-31 $1.32B $0.38B 28.82%
2012-12-31 $1.28B $0.36B 28.37%
2012-09-30 $1.25B $0.34B 27.63%
2012-06-30 $1.21B $0.32B 26.68%
2012-03-31 $1.19B $0.31B 25.72%
2011-12-31 $1.16B $0.30B 25.67%
2011-09-30 $1.10B $0.29B 25.84%
2011-06-30 $1.03B $0.28B 27.23%
2011-03-31 $0.99B $0.25B 25.53%
2010-12-31 $0.94B $0.25B 26.68%
2010-09-30 $0.92B $0.24B 25.93%
2010-06-30 $0.91B $0.22B 24.56%
2010-03-31 $0.88B $0.22B 25.49%
2009-12-31 $0.85B $0.19B 21.66%
Sector Industry Market Cap Revenue
Computer and Technology Computer Software $8.205B $4.485B
Open Text Corporation is engaged in development of innovative intranet, extranet and e-Business applications. Since creating one of the first search engines to index the World Wide Web, the company has remained at the forefront of Internet-based technologies. Open Text solutions allow individuals, teams, organizations, and global trading communities to collaborate on projects, share ideas and accelerate innovation to the fastest possible speed. Open Text Corporation is headquartered in Waterloo, Canada.
Stock Name Country Market Cap PE Ratio
Microsoft (MSFT) United States $3197.081B 37.24
Oracle (ORCL) United States $337.818B 27.50
Salesforce (CRM) United States $263.577B 44.06
Adobe (ADBE) United States $212.993B 35.61
Intuit (INTU) United States $169.682B 52.87
Synopsys (SNPS) United States $89.579B 62.03
Cadence Design Systems (CDNS) United States $80.084B 76.24
Dassault Systemes SA (DASTY) France $56.134B 36.47
Autodesk (ADSK) United States $46.304B 45.24
MicroStrategy (MSTR) United States $29.885B 0.00
ANSYS (ANSS) United States $28.906B 53.49
PTC (PTC) United States $21.905B 58.10
SS&C Technologies Holdings (SSNC) United States $15.290B 14.48
Manhattan Associates (MANH) United States $14.046B 74.55
Descartes Systems Group (DSGX) Canada $8.546B 74.80
Trend Micro (TMICY) Japan $6.572B 47.60
Pegasystems (PEGA) United States $5.096B 45.06
CommVault Systems (CVLT) United States $4.800B 78.44
Blackbaud (BLKB) United States $4.095B 35.25
ACI Worldwide (ACIW) United States $3.735B 17.89
Progress Software (PRGS) United States $2.174B 13.82
Verint Systems (VRNT) United States $1.911B 17.81
Sapiens (SPNS) Israel $1.880B 25.64
BlackBerry (BB) Canada $1.700B 0.00
PROS Holdings (PRO) United States $1.465B 0.00
Simulations Plus (SLP) United States $0.996B 73.28
Rand Worldwide (RWWI) United States $0.652B 0.00
Magic Software Enterprises (MGIC) Israel $0.522B 11.08
American Software (AMSWA) United States $0.355B 29.72
Canaan (CAN) China $0.245B 0.00
OptimizeRx (OPRX) United States $0.236B 0.00
Rigetti Computing (RGTI) United States $0.184B 0.00
Icad Inc (ICAD) United States $0.042B 0.00
Neonode (NEON) Sweden $0.037B 0.00
NetSol Technologies (NTWK) United States $0.030B 0.00
Smith Micro Software (SMSI) United States $0.024B 0.00
Hanryu Holdings (HRYU) South Korea $0.021B 0.00
Wetouch Technology (WETH) $0.020B 0.00
GSE Systems (GVP) United States $0.011B 0.00
SAP SE (SAP) Germany $0.000B 49.97